FENGYUN 1C DEB, 31217

Orbit data source: Space-Track

FENGYUN 1C DEB, 31217 is space debris in SSO originally from a launch on Mon, 10 May 1999 UTC launched from the Taiyaun Space Center, China (TSC). Fengyun 1C debris stems from the Chinese weather satellite Fengyun-1C, which was intentionally destroyed by a Chinese anti-satellite missile in 2007. This event dramatically increased the amount of space debris, with thousands of trackable fragments posing hazards to satellites and human spaceflight. The Fengyun 1C debris cloud has become a focal point in discussions about space sustainability and the need for international regulations to prevent the creation of new debris.

Loading next visibility...
Identifier
31217, 1999-025BKX
Orbit
SSO
Country
Flag of CNCN / PRC
Related business
Manufacturer
Unknown
Mission
Spacecraft
Bus & Motor
Unknown
Mass
Unknown
Launch date (UTC)
1999-05-10 (27 years ago)
Launch vehicle
Unknown
Launch site
Taiyaun Space Center, China (TSC)
Object type
Payload
Rocket body
Debris
Shape & HBR
Unknown shape, 0.1 m
Radar Cross Section
Medium (>0.1 m² and <1 m²)

Expand to show TLE details & history
Last TLE update: 23 hours ago

TLE from 23 hours ago
0 FENGYUN 1C DEB
1 31217U 99025BKX 26207.48298945  .00000934  00000-0  45451-3 0  9993
2 31217  98.6382 214.3196 0097168 230.5742 128.6803 14.18118017995476
Epoch: 2026-07-26T11:35Z
TLE epoch observation values (Epoch: 2026-07-26T11:35:30.288Z)
Latitude
-0.00004°
Longitude
96.26313°
Altitude
878.842 km
Speed
7.39 km/s
True Right ascension
14h 17m 16s
True Declination
0° 00' 00"
Sunlit
Object was in daylight at epoch
Visualization orbit readout
Latitude
Unknown
Longitude
Unknown
Altitude
Unknown
Speed
Unknown
Apparent Right ascension
Unknown
Apparent Declination
Unknown
Sunlit
N/A
Visualization observer readout
Local Sidereal Time
00:03:22
Azimuth
Unknown
Elevation
Unknown
Doppler factor
Unknown
Orbital elements
Apogee altitude
898.911 km
Perigee altitude
758.853 km
Semi-major axis
7,207.019 km
Eccentricity
0.00972
Inclination
98.6382°
RAAN
214.3196°
Arg. of periapsis
230.5742°
True anomaly
129.54294°
Mean anomaly
128.6803°
Eccentric anomaly
129.11227°
Mean motion
3.5474 °/min
Orbital period
101.48 mins
BSTAR
0.00045451
Loading maneuver chart data...
Computing Atmospheric mass density...
Loading historical data...
Loading historical data...
Loading historical data...
Loading historical data...
Loading historical data...
Loading historical data...
Loading historical data...

Documentation

Showing up to 5 results
|